FW1555 Weather Reports


time (UTC)temp
C
wind
direction
speed
KPH
gust
KPH
rain 1hr
cm
rain 24hr
cm
rain mn
cm
humidity
%
barometer
mb
20260502184558 14 0 0.0 1.6 0.00 0.10 0.10 58 1010.6
20260502183105 14 0 0.0 6.4 0.00 0.10 0.10 62 1010.6
20260502181550 14 0 0.0 1.6 0.00 0.10 0.10 56 1010.7
20260502163054 13 0 0.0 12.9 0.00 0.10 0.10 65 1011.4
20260502161544 13 0 0.0 3.2 0.00 0.10 0.10 67 1011.4
20260502151549 13 274 0.0 4.8 0.00 0.10 0.10 70 1011.5
20260502123048 10 0 0.0 4.8 0.00 0.10 0.10 92 1011.7
20260502121551 9 0 1.6 8.0 0.00 0.10 0.10 93 1011.7
20260502114548 9 0 0.0 1.6 0.00 0.10 0.10 96 1011.6
20260502113051 9 0 0.0 0.0 0.00 0.10 0.10 96 1011.7
20260502111551 8 0 0.0 0.0 0.00 0.10 0.10 96 1011.5
20260502110044 8 0 0.0 0.0 0.03 0.10 0.10 96 1011.2
20260502104549 8 0 0.0 0.0 0.03 0.10 0.10 95 1011.2
20260502103047 8 0 0.0 0.0 0.05 0.10 0.10 95 1011.1
20260502101553 8 0 0.0 0.0 0.08 0.10 0.10 95 1011.2
20260502070101 10 0 0.0 0.0 0.00 0.00 0.00 90 1011.1
20260502064548 10 0 0.0 0.0 0.00 0.00 0.00 88 1011.0
20260502063048 10 0 0.0 0.0 0.00 0.00 0.00 89 1010.9
20260502061545 10 0 0.0 0.0 0.00 0.00 0.00 88 1011.0
20260502060045 10 0 0.0 0.0 0.00 0.00 0.00 88 1011.2
20260502054544 10 0 0.0 0.0 0.00 0.03 0.00 87 1011.3
20260502053059 10 0 0.0 0.0 0.00 0.03 0.00 86 1011.2
20260502051604 10 0 0.0 0.0 0.00 0.03 0.00 85 1011.2
20260502050051 10 0 0.0 0.0 0.00 0.03 0.00 85 1011.3
20260502044541 10 0 0.0 0.0 0.00 0.03 0.00 85 1011.0
20260502043055 10 0 0.0 0.0 0.00 0.03 0.00 84 1011.2
20260502041602 10 0 0.0 0.0 0.00 0.03 0.00 83 1011.4
20260502040045 10 0 0.0 0.0 0.00 0.03 0.00 82 1011.2
20260502034548 10 0 0.0 0.0 0.00 0.03 0.03 82 1011.2
20260502033059 10 0 0.0 0.0 0.00 0.03 0.03 81 1011.2
20260502031549 10 0 0.0 0.0 0.00 0.03 0.03 80 1011.3
20260502030048 10 0 0.0 0.0 0.00 0.03 0.03 79 1011.4
20260502024547 11 0 0.0 0.0 0.00 0.03 0.03 78 1011.6
20260502023051 11 0 0.0 0.0 0.00 0.03 0.03 77 1011.4
20260502021542 11 0 0.0 0.0 0.00 0.03 0.03 77 1011.5
20260502020054 11 0 0.0 0.0 0.00 0.03 0.03 76 1011.5
20260502014543 11 0 0.0 0.0 0.00 0.03 0.03 75 1011.4
20260502013048 11 0 0.0 0.0 0.00 0.03 0.03 73 1011.1
20260502011546 12 0 0.0 0.0 0.00 0.03 0.03 71 1011.2
20260502010048 12 0 0.0 0.0 0.00 0.03 0.03 69 1011.2
20260502004541 13 0 0.0 0.0 0.00 0.03 0.03 67 1011.1
20260502003045 13 0 0.0 3.2 0.00 0.03 0.03 66 1011.0
20260502001558 13 0 0.0 9.7 0.00 0.03 0.03 66 1010.8
20260502000048 13 0 0.0 4.8 0.00 0.03 0.03 65 1010.7
20260501234547 13 0 0.0 6.4 0.00 0.03 0.03 64 1010.3
20260501233055 13 222 1.6 14.5 0.00 0.03 0.03 62 1010.2
20260501231600 14 153 0.0 11.3 0.00 0.03 0.03 61 1010.0
20260501230049 15 0 0.0 9.7 0.00 0.03 0.03 60 1009.9
20260501224548 15 215 0.0 12.9 0.00 0.03 0.03 58 1009.6
20260501223110 16 252 0.0 9.7 0.00 0.03 0.03 55 1009.5
20260501221551 16 207 1.6 12.9 0.00 0.03 0.03 51 1009.4
20260501220052 17 0 1.6 16.1 0.00 0.03 0.03 48 1009.5
20260501214549 17 238 8.0 22.5 0.00 0.03 0.03 42 1009.4
20260501213047 17 0 1.6 17.7 0.00 0.03 0.03 43 1009.3
20260501211552 17 240 4.8 22.5 0.00 0.03 0.03 42 1009.2
20260501210051 17 0 0.0 11.3 0.00 0.03 0.03 43 1009.2
20260501204609 17 0 0.0 12.9 0.00 0.03 0.03 42 1009.2
20260501203050 17 265 9.7 19.3 0.00 0.03 0.03 40 1009.3
20260501201552 17 178 3.2 22.5 0.00 0.03 0.03 41 1009.3
20260501200050 18 0 0.0 16.1 0.00 0.03 0.03 40 1009.3
20260501194546 18 0 1.6 9.7 0.00 0.05 0.03 42 1009.6
20260501193047 17 0 0.0 16.1 0.00 0.05 0.03 39 1009.7
20260501191556 17 0 1.6 14.5 0.00 0.05 0.03 40 1009.8
20260501190053 17 251 4.8 16.1 0.00 0.05 0.03 43 1010.1